Temp
26 25 24 23 21 21 22 26 28 30 31 31 32 32 31 30 31 27 29 28 28 26 25 25 25 25 25 25 25 25 25 25 25 25 25 24 24 24 24 23 23 22 22 21 21 21 21 22 22
26 24 24 22 22 21 23 28 30 29 32 32 34 33 30 28 30 28 28 27 28 26 25 25 25 25 25 25 25 25 25 24 25 24 24 24 24 24 23 23 22 22 22 21 21 21 21 22 22
26 24 22 22 21 23 24 29 30 31 33 33 33 34 31 29 30 29 29 28 27 26 26 25 25 26 25 25 25 25 24 24 24 24 24 24 24 23 23 23 22 22 21 21 21 21 21 21 22
25 23 22 23 23 25 27 29 30 32 33 34 33 30 31 32 31 30 30 29 28 26 26 25 25 25 25 25 25 24 24 24 24 24 24 24 24 23 23 23 22 21 21 20 20 21 21 21 21
25 21 22 23 24 27 31 31 31 31 32 33 31 29 29 30 31 30 30 29 28 26 26 25 25 25 25 24 24 24 24 24 23 23 23 23 23 23 23 23 22 21 21 21 20 21 21 21 21
21 22 22 22 25 30 30 30 32 33 33 32 30 29 28 30 30 30 30 29 29 27 26 25 24 24 24 24 24 24 24 24 24 23 23 23 23 23 23 23 22 21 21 20 20 21 20 20 20
22 22 22 24 27 29 30 30 30 30 30 31 31 29 28 28 30 29 29 28 27 26 25 25 24 23 23 23 23 23 23 23 23 23 22 22 23 23 23 22 22 21 21 21 21 21 20 20 20
23 23 24 25 26 29 31 31 31 30 31 33 33 29 28 29 31 30 29 28 27 27 26 25 24 24 23 22 22 22 22 22 22 22 22 21 22 22 22 22 22 21 21 21 21 20 20 20 20
27 22 22 24 28 29 31 31 30 31 31 32 32 30 29 31 31 29 27 26 26 26 25 24 24 24 24 23 22 22 21 21 21 20 20 20 21 21 21 21 21 21 21 21 20 20 20 20 20
24 22 24 27 28 30 30 31 32 31 30 31 31 29 30 30 28 25 25 24 24 25 24 24 24 23 23 23 23 22 22 22 21 20 20 19 20 20 20 21 21 21 20 20 20 20 20 19 19
25 24 26 28 29 29 29 28 29 29 29 30 28 27 25 25 24 23 23 24 23 22 23 23 23 23 23 23 23 23 22 22 22 21 20 19 19 19 19 20 20 20 19 19 19 19 18 19 19
26 26 27 28 29 29 29 29 28 29 29 29 27 26 25 23 22 23 22 23 23 21 21 21 22 22 22 22 23 23 22 22 22 22 21 20 20 19 19 19 20 20 19 19 19 19 18 19 19
26 27 28 28 29 28 30 28 28 28 29 30 28 26 23 22 22 22 23 23 21 20 20 19 20 20 21 22 22 23 22 22 22 21 21 21 20 20 20 20 20 19 19 19 19 19 18 18 18
27 27 26 27 27 28 28 27 28 28 29 29 27 23 22 21 21 22 22 21 20 19 18 18 18 18 19 19 20 21 21 22 21 21 21 21 20 20 20 20 20 20 19 18 19 19 18 18 18
27 25 26 27 27 28 28 26 27 29 29 27 26 24 22 21 21 20 20 19 19 18 18 18 18 17 17 17 18 18 18 19 19 19 19 20 20 20 21 21 21 20 20 18 17 18 17 17 17
24 24 23 27 27 28 26 25 28 28 28 26 25 24 21 20 19 20 19 18 18 18 17 17 17 17 17 17 17 17 18 18 18 18 17 17 18 18 18 19 20 20 20 20 18 17 16 17 17
23 22 24 26 28 28 27 26 27 29 28 27 24 22 20 19 18 18 18 18 18 17 17 17 17 17 17 17 17 17 17 17 17 17 18 18 18 17 17 17 18 18 19 19 18 17 16 15 16
23 25 25 25 29 30 28 26 26 28 29 27 23 21 19 18 17 18 18 18 17 17 17 16 16 16 16 16 16 16 16 16 17 17 16 17 17 17 16 16 16 17 18 17 17 17 16 15 16
26 25 25 25 28 29 27 26 26 26 27 24 21 19 18 17 17 18 18 17 17 17 16 16 16 16 15 15 15 15 14 15 15 16 15 15 15 16 16 15 15 15 16 17 17 17 16 15 15
26 25 24 25 27 27 25 24 25 26 26 25 20 18 17 17 16 16 17 17 17 16 16 15 15 15 15 14 14 13 13 13 14 14 14 14 14 14 15 15 15 15 14 16 16 16 16 15 15
25 25 24 25 25 25 24 24 24 24 22 22 20 19 18 16 15 15 16 17 16 16 15 15 15 14 14 14 13 13 12 12 12 12 12 12 13 13 13 14 15 14 14 14 13 15 16 15 15
24 26 26 25 23 22 24 22 24 23 20 20 18 16 15 15 15 15 15 17 15 15 15 14 14 14 14 13 12 11 11 10 11 11 11 11 11 12 13 13 14 14 14 14 13 13 14 14 15
25 25 25 24 22 21 23 22 24 24 20 19 16 16 14 14 14 14 15 17 15 15 14 14 14 13 13 12 12 11 11 10 9 9 9 9 9 10 12 13 13 14 13 13 13 12 12 13 13
26 25 24 23 22 20 23 23 23 22 21 18 17 16 15 14 14 15 17 15 14 15 14 14 13 13 12 12 12 11 10 9 9 9 8 8 8 9 9 10 12 12 12 12 12 12 12 12 13
23 22 18 19 19 21 25 23 18 18 21 18 16 15 14 14 14 14 12 13 14 14 14 13 13 12 12 11 11 10 9 8 8 8 7 7 7 7 8 8 10 11 11 11 11 11 11 11 12
24 23 18 18 17 20 22 21 17 17 17 17 16 15 15 14 13 12 12 13 14 14 14 13 13 12 10 10 9 8 7 6 6 7 7 6 6 6 7 7 9 9 9 9 9 10 10 11 12
23 21 22 20 19 18 20 18 18 17 16 16 16 15 14 13 12 12 13 14 14 14 13 12 10 10 9 8 7 6 5 4 4 4 5 5 6 6 7 7 8 9 11 8 8 8 9 9 10
23 23 20 17 16 16 20 21 18 16 16 16 15 14 13 13 13 12 13 14 14 13 13 10 9 8 6 6 5 4 5 5 4 4 4 5 5 6 7 7 6 7 7 8 7 7 7 7 9
19 19 19 19 17 15 15 17 17 17 16 15 15 14 12 13 12 12 12 14 13 13 11 9 8 7 6 6 5 5 4 5 5 4 5 6 6 6 6 6 6 6 5 5 5 6 6 6 7
19 18 18 15 16 14 14 17 18 16 16 15 15 13 13 13 13 11 12 13 12 10 9 8 7 7 6 5 4 3 3 4 4 5 5 6 5 5 5 5 5 5 5 5 5 6 6 5 6
Height
792 793 794 795 821 820 824 797 772 766 757 748 743 752 764 759 768 800 773 772 773 776 781 785 788 788 790 794 797 800 803 806 809 811 812 814 816 817 819 821 824 826 829 831 832 833 834 834 834
791 794 796 798 828 838 821 778 780 765 749 741 744 752 762 777 760 768 774 775 775 777 780 784 786 789 791 794 796 799 803 807 809 811 812 814 815 817 819 822 824 826 828 830 832 833 834 835 836
790 793 802 811 824 825 819 774 764 754 745 747 753 746 758 771 764 768 771 772 774 777 780 782 784 787 791 793 796 799 802 805 808 810 812 814 815 817 819 821 823 825 827 829 830 832 833 835 836
791 792 795 814 818 793 790 774 755 755 749 746 750 771 759 756 759 766 771 772 773 776 779 781 783 786 789 792 795 799 802 804 806 808 810 812 814 817 819 821 823 824 827 829 830 831 833 834 836
793 795 815 814 804 780 767 755 752 761 759 757 758 777 772 763 763 766 770 773 774 776 779 781 784 787 789 792 795 798 801 803 804 806 808 811 813 815 817 819 822 824 826 828 830 831 832 834 836
801 796 822 825 802 769 764 752 751 757 758 760 768 773 776 768 767 769 771 774 776 778 781 783 787 788 790 792 794 796 798 800 802 803 806 809 811 813 815 817 820 823 825 827 829 830 832 834 836
802 811 818 809 794 780 762 748 756 763 768 768 759 780 776 771 772 773 773 776 778 780 783 785 787 788 791 793 794 796 798 799 801 804 806 808 810 813 816 818 820 821 822 823 825 827 830 832 834
790 801 808 799 799 787 755 752 751 757 766 755 755 780 784 770 770 772 772 774 777 778 779 781 783 784 786 790 792 794 796 799 801 803 805 807 809 812 813 815 816 817 819 821 822 825 827 829 832
780 814 815 804 788 781 756 760 752 750 758 757 756 761 765 768 770 773 773 776 778 781 781 781 781 782 783 786 790 792 795 797 800 801 803 805 807 809 811 812 815 817 818 820 820 822 824 826 829
795 812 802 783 776 774 764 760 756 761 764 763 759 761 764 766 771 776 779 783 784 784 786 785 784 783 783 784 786 789 793 795 797 800 802 803 804 806 808 811 814 815 815 817 818 821 822 823 825
789 801 785 775 768 762 764 765 758 766 773 761 769 766 764 766 771 776 782 786 790 791 789 788 788 787 786 786 785 786 788 791 793 796 798 800 801 801 803 805 807 809 811 813 814 815 817 818 820
794 779 775 768 761 763 767 761 766 763 763 757 756 757 762 770 774 776 779 785 789 791 792 790 789 788 790 790 788 788 788 790 792 793 795 796 798 799 801 801 800 801 802 803 806 808 809 811 811
785 778 769 763 757 760 756 762 765 763 753 751 753 758 767 773 778 779 780 784 788 791 793 792 790 789 789 786 788 789 788 789 789 791 792 792 793 795 796 797 798 797 797 799 802 803 803 805 807
775 773 771 764 762 759 766 766 762 757 750 753 756 765 768 772 778 779 783 788 790 792 792 793 792 792 791 788 787 788 790 790 789 789 789 791 790 790 790 791 792 794 793 793 793 792 796 799 803
775 784 774 766 761 761 757 774 770 747 749 755 759 763 769 775 777 782 786 790 793 794 794 792 792 792 791 791 790 789 788 788 788 788 787 789 790 790 788 788 788 788 788 787 787 786 789 795 799
789 785 798 761 760 754 765 789 756 744 744 754 759 765 771 779 782 786 788 790 792 794 795 795 794 792 792 791 791 790 789 788 788 788 786 786 786 786 784 783 783 782 783 783 783 783 782 783 788
795 812 795 774 747 755 758 774 753 744 747 752 761 768 773 779 785 789 791 791 794 798 800 800 799 797 796 794 793 792 791 790 789 788 787 785 784 783 782 778 776 776 776 776 775 776 776 777 778
802 797 785 787 757 751 760 768 757 746 748 753 764 772 777 783 788 790 792 794 797 800 802 802 802 801 799 797 796 794 793 792 791 789 788 786 783 780 778 776 774 770 767 767 767 768 768 767 770
782 783 787 773 757 760 764 767 762 752 748 761 771 776 782 788 791 793 795 796 797 800 803 803 803 803 802 800 798 796 794 793 792 790 788 786 783 781 777 774 770 766 762 760 760 757 758 762 763
775 784 788 771 756 762 769 770 756 749 748 751 770 781 786 790 793 796 797 798 799 802 803 803 805 805 803 801 800 799 795 793 792 789 787 785 783 779 774 770 767 764 760 755 752 750 748 748 749
778 783 783 781 768 760 767 772 765 760 758 758 771 778 784 789 792 794 798 801 801 802 804 805 805 806 805 803 800 797 794 791 787 785 782 783 781 778 774 767 765 762 758 752 750 746 737 736 740
788 765 768 772 784 802 771 794 769 769 776 772 777 783 788 792 794 794 796 798 802 806 804 804 804 804 804 803 800 798 796 792 788 784 781 778 777 774 768 765 763 756 755 751 746 744 738 734 729
776 764 770 772 782 788 776 790 769 759 781 779 783 784 788 791 793 796 798 799 804 805 803 802 800 801 802 800 798 795 793 791 788 786 781 777 772 770 765 761 757 754 749 747 743 740 737 735 730
760 770 772 774 779 802 771 778 766 765 765 776 781 783 787 790 794 795 797 800 802 803 803 804 804 805 803 801 800 797 794 790 785 781 775 771 768 766 763 758 755 751 746 744 739 736 732 731 730
771 787 815 812 807 796 760 771 787 773 758 767 777 786 788 790 792 796 799 800 800 800 801 800 800 799 799 798 797 795 791 787 782 778 773 770 766 763 759 756 752 748 742 740 738 733 729 726 723
776 785 817 828 822 797 775 780 790 780 774 775 780 784 788 792 793 796 798 798 797 797 797 798 800 799 798 796 796 793 788 783 777 772 768 764 763 758 753 749 747 745 741 737 736 730 726 722 722
777 793 781 801 798 802 781 786 784 781 784 784 785 786 790 791 792 793 794 795 795 796 797 798 799 798 796 794 791 788 782 776 771 766 763 759 756 752 749 748 744 741 736 735 736 727 722 718 718
774 773 797 810 819 811 774 770 774 784 784 783 786 788 790 791 790 791 792 795 797 796 795 794 794 796 794 790 786 783 778 773 768 762 758 754 752 750 747 745 742 738 734 732 729 725 719 717 715
791 793 793 799 806 813 809 781 763 769 772 776 781 785 789 790 788 788 791 792 793 793 792 792 791 792 790 786 783 780 777 772 767 761 757 756 753 749 747 744 741 737 734 731 728 723 720 718 714
785 790 792 820 812 806 803 774 758 763 765 773 778 783 786 787 786 786 787 788 790 790 790 789 788 787 788 785 781 778 775 772 768 762 760 756 752 749 746 742 738 736 733 729 725 722 719 716 711
Wind_Speed
6 5 3 3 3 3 5 9 4 6 7 3 8 5 5 3 6 7 9 16 17 22 25 21 20 20 20 20 18 17 15 15 15 15 14 14 14 14 15 15 14 13 13 12 12 10 9 8 9
5 1 4 2 2 2 7 12 5 7 4 7 5 5 19 12 11 10 13 17 13 20 25 23 20 18 19 19 19 17 16 15 15 15 15 15 14 14 14 14 14 14 13 13 12 10 8 7 9
8 6 2 3 3 6 5 5 7 6 6 5 2 2 5 10 6 7 23 17 13 17 23 22 21 20 19 18 17 17 17 17 16 17 17 16 15 15 14 14 14 14 13 13 12 11 9 8 9
1 2 4 1 11 14 12 7 6 5 5 5 4 6 6 15 8 17 21 17 13 16 17 20 21 20 20 19 17 16 16 16 17 18 18 18 18 16 16 14 14 15 13 12 12 11 9 9 11
6 1 2 4 10 12 4 7 9 7 4 5 7 6 8 14 28 24 19 19 19 19 13 15 18 19 20 19 19 17 16 16 17 18 20 20 20 19 18 17 16 15 14 14 13 11 10 10 11
3 2 3 4 10 16 3 8 7 5 3 6 7 4 4 17 19 18 16 15 14 15 14 13 12 16 18 19 18 17 16 16 16 18 21 22 22 21 20 20 18 16 15 14 14 12 11 12 13
4 1 5 9 14 9 7 8 7 6 7 5 4 6 3 8 14 14 19 16 12 11 12 11 10 13 16 16 15 14 14 14 13 15 19 22 22 23 22 20 20 19 18 17 17 15 14 14 15
3 2 8 6 8 4 5 5 7 8 4 1 1 4 4 5 12 14 12 15 15 12 11 10 7 9 17 16 15 14 13 13 13 14 16 19 21 23 24 24 24 23 21 19 19 17 16 16 17
1 2 9 7 6 6 4 5 3 4 5 4 4 8 11 13 8 13 11 7 12 11 10 7 7 6 11 13 13 14 13 13 13 15 17 19 21 23 24 26 25 24 22 21 21 20 19 18 19
3 3 6 7 13 3 5 5 2 2 3 4 5 12 17 20 23 25 23 23 27 9 3 7 8 6 6 7 9 10 12 14 15 16 18 20 23 23 25 26 26 26 26 25 24 22 20 20 22
7 9 9 15 6 7 3 9 6 6 5 6 8 7 9 21 21 20 21 25 24 25 25 21 4 10 7 7 9 11 12 12 14 19 20 21 23 24 25 27 29 30 27 28 26 25 25 25 25
5 12 11 12 10 6 4 4 7 3 6 6 11 11 10 13 11 17 21 25 25 28 26 26 20 16 3 7 13 12 13 13 12 14 17 22 23 25 26 27 29 32 34 33 32 31 31 30 29
8 9 10 11 8 5 6 6 7 8 11 1 10 14 18 16 18 26 29 28 29 28 28 26 23 23 16 7 5 15 11 14 14 16 19 22 26 27 28 32 33 35 36 36 35 35 36 35 32
7 11 11 8 8 6 5 7 3 11 11 4 14 16 16 17 16 24 27 27 30 29 29 27 26 25 21 19 16 5 10 12 12 16 23 20 27 30 30 33 34 35 35 39 40 41 41 39 35
9 10 11 11 7 8 9 11 13 19 7 11 16 18 17 15 23 21 29 29 27 28 26 27 27 27 29 25 21 18 14 9 8 8 13 18 22 25 29 30 32 33 36 35 39 43 38 35 35
7 7 7 17 13 16 7 11 10 13 14 12 14 17 18 14 19 27 28 27 25 26 25 24 23 24 24 25 27 23 21 18 17 17 16 14 15 18 21 25 33 36 36 39 36 39 38 39 40
5 7 10 17 17 9 8 6 8 1 10 10 15 17 17 15 16 24 27 25 22 23 22 23 25 23 23 20 21 21 21 20 21 21 19 20 20 20 23 25 27 29 35 39 37 36 35 34 37
7 5 5 6 7 3 3 6 9 5 4 6 17 15 15 14 12 22 22 22 22 20 20 21 22 24 21 22 20 21 21 22 23 23 23 22 24 23 22 22 26 29 30 32 32 35 35 38 38
7 7 8 11 9 1 6 4 7 9 6 8 14 16 15 14 14 23 19 22 21 19 20 22 21 22 21 25 26 26 25 25 23 23 23 25 28 27 26 27 24 22 27 30 33 36 38 36 34
6 7 8 8 11 5 5 7 7 10 4 6 19 15 14 11 9 15 20 18 18 16 14 16 19 21 21 24 23 23 26 22 21 22 26 27 28 30 31 30 28 25 24 26 32 36 33 38 40
7 5 7 7 7 10 9 9 7 6 10 18 15 14 11 12 10 9 15 14 16 15 16 16 18 20 21 25 27 28 25 23 24 28 28 27 28 29 33 33 28 26 23 24 26 22 38 23 29
7 9 8 9 7 5 4 12 17 5 8 12 13 12 11 9 9 8 13 13 14 16 16 17 18 18 22 24 26 28 27 25 28 30 31 32 32 32 32 32 32 27 24 21 23 20 19 26 24
3 6 6 6 8 5 21 9 14 7 10 12 11 12 10 9 9 8 9 11 16 17 17 16 18 19 22 24 26 29 29 30 28 30 31 31 30 31 33 35 33 31 24 25 21 20 18 18 21
7 8 7 7 8 5 21 9 6 2 14 14 12 11 10 9 8 7 9 15 14 14 14 11 11 13 14 18 22 22 23 25 28 31 34 32 29 30 31 34 31 21 22 27 24 21 18 20 23
9 6 4 4 3 6 6 5 2 12 17 18 16 12 9 8 7 6 8 13 13 12 12 13 12 15 18 17 18 24 29 33 30 27 23 25 30 31 29 36 37 32 25 22 27 23 24 20 17
1 2 3 5 4 8 11 6 1 7 13 12 12 11 8 7 7 7 8 9 9 11 13 11 12 14 13 15 21 28 33 28 29 28 29 27 27 30 35 34 30 19 21 22 25 20 19 22 23
2 2 3 6 6 5 5 5 1 6 7 8 8 8 7 7 7 7 7 8 6 8 7 10 13 13 15 20 28 34 35 32 31 29 25 32 35 30 23 17 19 25 26 25 24 22 22 21 23
1 2 1 3 5 5 4 5 4 10 9 9 8 8 7 6 6 5 4 3 5 5 6 9 12 9 15 25 30 30 30 29 29 27 27 24 21 15 20 20 17 16 15 19 25 24 21 20 19
5 3 4 4 1 4 3 4 7 13 14 13 8 8 8 6 5 5 4 1 2 4 9 11 9 13 20 26 27 25 27 25 26 25 23 15 15 16 17 19 21 20 19 19 19 22 22 20 20
1 3 3 3 6 4 3 6 1 8 8 7 7 8 7 6 5 6 6 4 4 10 7 9 8 13 17 21 23 20 24 22 23 23 21 18 17 18 17 19 20 21 20 21 20 22 21 17 14
Wind_Direction
218 235 286 307 33 68 263 271 240 29 50 48 45 50 26 41 97 142 128 122 135 156 159 161 161 159 158 160 162 165 165 168 171 168 161 157 154 154 154 152 151 151 150 149 148 149 152 145 145
204 299 266 272 95 305 286 257 256 82 86 75 64 75 80 79 70 106 119 137 127 156 161 161 158 158 160 164 167 171 176 180 184 181 175 173 170 167 162 162 162 161 162 160 159 163 163 156 151
226 220 94 168 201 227 225 334 65 72 32 49 140 130 89 104 96 113 133 130 131 143 166 164 163 162 167 170 176 180 185 187 192 192 189 188 183 179 177 175 173 170 170 171 170 177 174 170 162
266 341 320 159 254 259 237 263 52 72 45 4 38 52 57 102 116 133 137 132 151 146 158 172 172 172 173 176 184 193 198 199 198 201 200 199 195 193 189 186 184 184 182 180 185 189 188 184 179
254 289 228 253 261 272 219 99 58 38 55 6 54 101 72 69 113 122 127 132 151 159 155 162 180 183 182 184 188 193 201 207 207 207 208 207 205 202 199 198 195 192 191 195 198 204 204 200 196
324 128 4 272 283 289 200 109 87 59 86 11 77 92 62 88 99 117 133 120 141 152 163 171 180 195 194 191 193 198 202 207 210 210 212 213 213 212 209 206 203 201 201 204 208 213 214 211 206
180 84 246 275 283 295 151 129 102 77 70 32 303 101 130 87 113 115 118 117 125 136 150 165 183 193 200 201 203 206 213 216 221 220 215 217 219 220 218 215 212 209 209 211 217 217 217 215 212
194 122 287 278 302 295 98 68 98 102 110 109 288 83 157 182 144 140 142 154 157 177 190 179 184 194 199 203 206 213 220 225 228 227 223 225 228 226 224 222 220 219 217 219 221 219 219 219 218
264 288 277 276 338 331 40 86 171 174 133 166 225 137 151 138 114 136 133 119 164 163 182 206 202 178 191 204 216 220 222 228 233 232 229 229 232 229 228 228 227 226 225 225 226 223 221 221 220
160 224 258 260 295 313 8 25 66 103 304 258 206 73 92 70 65 69 61 55 56 63 101 207 231 207 179 183 202 213 230 239 236 232 232 230 231 234 235 234 234 232 231 228 229 228 226 222 220
259 233 252 278 283 328 356 342 328 355 309 277 113 129 90 72 65 68 65 57 55 47 44 46 16 224 220 198 209 213 218 228 241 245 237 235 236 234 236 237 234 233 230 228 225 225 224 222 221
252 261 247 265 283 314 318 324 323 298 249 143 131 129 108 83 67 62 59 53 58 55 50 49 45 52 53 251 227 228 219 223 237 250 247 242 239 237 234 237 235 232 227 225 224 224 225 224 222
272 278 276 274 271 268 277 275 250 277 283 239 116 89 90 85 73 62 58 47 48 54 48 41 35 33 25 32 1 233 230 223 242 251 252 244 243 240 237 235 236 234 232 228 227 228 227 225 221
286 301 296 299 295 307 291 275 250 250 243 162 96 101 93 92 88 71 65 56 50 47 46 41 38 35 31 31 25 30 249 260 265 258 250 251 244 244 240 240 238 235 232 230 229 232 228 226 223
288 304 304 291 269 262 266 290 272 264 210 139 119 109 99 92 82 79 80 69 63 54 43 36 34 37 36 32 31 34 26 7 352 320 297 284 275 266 261 258 252 246 242 235 229 228 226 222 223
320 310 284 268 249 254 169 253 273 297 171 158 130 116 104 93 88 83 84 79 68 61 52 41 33 33 34 35 28 23 16 6 353 344 335 326 298 290 287 281 270 263 252 243 233 220 211 213 218
246 258 268 283 254 230 161 223 264 111 133 184 139 124 112 103 90 86 83 78 69 57 47 44 37 33 28 28 26 23 17 13 6 360 346 330 316 308 298 295 287 279 270 257 238 222 212 204 208
251 264 294 274 312 143 205 238 258 249 227 227 136 120 117 111 107 96 86 82 75 61 50 44 36 27 27 18 18 11 7 2 355 352 347 347 341 332 323 313 297 287 279 264 241 226 214 210 208
286 338 327 307 290 272 242 282 279 286 300 118 121 125 116 111 109 104 98 93 75 65 52 40 29 23 22 17 10 3 358 348 348 349 342 344 337 331 331 330 321 308 285 268 251 225 213 215 210
324 310 292 286 291 7 333 304 293 288 295 155 137 128 120 116 112 105 92 86 84 79 63 45 27 17 16 14 6 359 350 351 346 338 333 335 336 328 322 321 318 318 315 281 252 226 220 217 204
295 257 273 273 327 329 348 314 316 30 81 99 108 124 123 125 117 105 89 71 83 76 63 45 24 17 13 4 358 354 353 348 345 342 339 334 329 324 320 312 309 311 309 304 310 278 223 227 218
260 276 320 335 2 282 9 285 285 159 97 96 103 103 105 98 88 91 84 68 80 73 50 33 18 10 7 8 4 360 355 346 337 337 331 327 326 323 317 309 296 298 298 300 296 301 308 272 220
286 350 326 312 306 312 282 273 258 177 144 139 115 105 103 104 100 89 91 84 81 56 43 21 7 2 359 352 345 347 346 343 337 331 324 324 325 325 319 317 300 286 287 295 288 292 297 302 293
345 300 298 279 264 249 260 284 279 184 165 137 126 122 114 107 99 97 83 82 68 47 33 31 21 360 348 337 328 335 330 326 325 323 319 324 326 322 316 316 316 320 301 295 293 290 289 292 290
37 24 327 315 335 243 344 316 306 328 146 139 128 117 113 116 120 92 79 62 46 32 23 9 7 353 340 343 347 337 332 326 318 314 308 311 316 316 313 313 308 312 302 319 307 290 286 276 275
15 151 185 305 303 294 319 271 119 25 73 103 111 123 124 107 93 94 83 66 38 23 3 350 333 341 14 355 338 329 325 320 312 308 305 303 308 307 308 307 301 319 343 333 309 328 311 295 283
90 355 259 288 290 274 211 109 130 113 98 108 124 125 123 101 92 87 71 34 27 353 354 349 52 27 2 350 341 334 332 329 320 313 306 302 304 307 306 326 331 311 304 325 319 322 320 319 302
138 242 6 336 293 257 240 239 193 177 167 161 158 154 133 118 107 108 91 41 345 346 4 83 57 18 359 359 352 344 340 339 334 322 315 322 324 339 333 342 342 342 329 305 316 317 317 320 317
342 351 359 14 201 264 281 248 177 187 176 179 175 161 138 126 120 144 150 139 331 27 75 59 41 9 2 355 350 347 346 353 352 344 343 356 356 356 347 341 340 345 336 333 316 320 319 305 309
150 248 159 176 276 249 246 260 224 109 140 134 129 133 147 160 201 166 167 180 87 100 79 59 30 2 353 350 348 342 335 336 347 355 357 359 359 358 354 348 344 343 342 339 333 326 324 329 332